Location: ?ern� Novina
(50.6762°N, 14.8696°E)
Time: 14:04:00
(UTC+00:00)

Resurs 01 Rocket - Pass Details

Date: 03 March 2021
Orbit: 635 x 643 km, 98.0° (Epoch: 11 April)

Event Time Altitude Azimuth Distance (km) Brightness Sun altitude
Exits shadow 17:35:08 - 69° (ENE) 2,092 3.7 -8.7°
Reaches altitude 10° 17:35:51 10° 60° (ENE) 2,032 3.7 -8.8°
Maximum altitude 17:36:25 10° 52° (NE) 2,017 3.7 -8.9°
Drops below altitude 10° 17:37:00 10° 44° (NE) 2,034 3.8 -9.0°
Sets 17:41:24 0° 3° (N) 2,951 5.0 -9.6°
